Regional Weather Roundup
Issued by NWS

Home | Current Version | Previous Version | Text Only | Print | Product List | Glossary On
Versions: 1 2 3 4 5 6 7 8 9 10 11 12 13 14 15 16 17 18 19 20 21 22 23 24 25 26 27 28 29 30 31 32 33 34 35 36 37 38 39 40 41 42 43 44 45 46 47 48 49 50
000
ASUS43 KDTX 220301
RWRMI
MICHIGAN HOURLY REGIONAL WEATHER ROUNDUP
NATIONAL WEATHER SERVICE DETROIT/PONTIAC MI
1100 PM EDT THU SEP 21 2017

NOTE: "FAIR" INDICATES FEW OR NO CLOUDS BELOW 12,000 FEET WITH NO
SIGNIFICANT WEATHER AND/OR OBSTRUCTION TO VISIBILITY.

MIZ047>049-052>055-059>063-066>070-074>076-081>083-220400-
SOUTHEAST LOWER MICHIGAN

CITY           SKY/WX    TMP DP  RH WIND       PRES   REMARKS
ADRIAN         CLOUDY    73  65  75 N7        30.10S
ALMA           PTCLDY    65  62  91 SW6       30.06R
ANN ARBOR      PTCLDY    68  65  90 SW5       30.09R
BAD AXE        CLOUDY    74  69  85 S6        30.08F
CARO           PTCLDY    69  62  79 NE5       30.05F
DETROIT CITY   PTCLDY    74  65  73 S8        30.08F
DETROIT        CLOUDY    75  68  78 SE8       30.08F
FLINT          CLOUDY    71  60  68 SE5       30.07R
GROSSE ILE     CLEAR     72  67  83 SE6       30.07F
HILLSDALE      PTCLDY    70  63  78 E3        30.10S
HOWELL         CLOUDY    71  62  75 S5        30.07S

CITY           SKY/WX    TMP DP  RH WIND       PRES   REMARKS
JACKSON        MOCLDY    74  63  68 SE7       30.08F
LAMBERTVILLE   PTCLDY    75  68  80 CALM      30.08S
LANSING        CLOUDY    68  64  87 W5        30.07R
LAPEER         FAIR      73  67  83 S6        30.08R
MASON          CLOUDY    70  65  84 S6        30.06S
MONROE         CLEAR     74  68  81 CALM      30.07F
MT. CLEMENS    CLOUDY    71  70  95 SE7       30.08F
PONTIAC        MOCLDY    73  63  70 W3        30.07S
PORT HOPE        N/A     77  70  79 VRB5      30.06R
PORT HURON     PTCLDY    68  66  94 CALM      30.10S
TRI CITIES     CLEAR     68  63  84 E5        30.06R
MIDLAND        FAIR      67  63  88 CALM      30.04S
TROY           PTCLDY    76  68  77 SE3       30.09F
SAGINAW HB     PTCLDY    64  61  88 CALM      30.04S
$$
MIZ043>046-050>051-056>058-064>065-071>073-077>080-220400-
SOUTHWEST LOWER MICHIGAN

CITY           SKY/WX    TMP DP  RH WIND       PRES   REMARKS
BATTLE CREEK   CLEAR     72  66  81 SE5       30.08S
BENTON HARBOR  CLEAR     75  71  87 E5        30.04R
BIG RAPIDS     CLEAR     67  64  92 CALM      30.06S
COLDWATER      CLEAR     74  65  72 SE5       30.08S
FREMONT        FAIR      70  68  93 CALM      30.04S
HOLLAND        CLEAR     74  64  71 SE6       30.05S
GRAND RAPIDS   MOCLDY    72  64  76 S6        30.05S
IONIA          FAIR      69  64  83 CALM      30.05S
KALAMAZOO      CLEAR     73  64  73 CALM      30.07S
LUDINGTON      CLEAR     64  64  98 CALM      30.03S FOG
MARSHALL       PTCLDY    71  65  80 CALM      30.08S
MOUNT PLEASANT CLEAR     69  66  89 CALM      30.04S
MUSKEGON       MOCLDY    76  68  76 SE7       30.04R
SOUTH HAVEN    CLEAR     76  67  71 SE6       30.05R
$$
MIZ016>042-220400-
NORTHERN LOWER MICHIGAN

CITY           SKY/WX    TMP DP  RH WIND       PRES   REMARKS
ALPENA         CLEAR     65  65 100 S3        30.06R
BEAVER ISLAND  CLEAR     66  65  96 CALM      30.04F FOG
BELLAIRE       FOG       64  63  94 CALM      30.04S VSB 1/4
CADILLAC       PTCLDY    68  64  89 CALM      30.08R
CHARLEVOIX     CLEAR     69  69 100 E5        30.07S
FRANKFORT      CLOUDY    65  65 100 CALM      30.02S
GAYLORD        CLEAR     70  66  87 CALM      30.08S
GRAYLING       FOG       66  64  93 CALM      30.09R VSB 3/4
HARBOR SPRINGS CLEAR     68  67  96 CALM      30.04S
HOUGHTON LAKE  PTCLDY    68  67  96 CALM      30.07S
MANISTEE       PTCLDY    65  64  97 CALM      30.03R FOG
OSCODA         CLEAR     70  70  99 SW3       30.05R
PELLSTON       CLEAR     65  65 100 CALM      30.05S FOG
ROGERS CITY    CLEAR     65  63  96 CALM      30.06S FOG
TRAVERSE CITY  CLOUDY    68  65  90 CALM      30.02F
$$
MIZ007>008-015-220400-
EASTERN UPPER MICHIGAN

CITY           SKY/WX    TMP DP  RH WIND       PRES   REMARKS
KINROSS        CLEAR     66  65  96 SE5       30.06S FOG
MACKINAC ISLAN MOCLDY    66  66 100 SE5       30.05S FOG
NEWBERRY       CLOUDY    68  67  96 SE5       30.04S
S. S. MARIE    CLEAR     68  66  93 E3        30.05F
MUNISING         N/A     63  63 100 S5        30.01S
$$
MIZ004>006-011>014-085-220400-
CENTRAL UPPER MICHIGAN

CITY           SKY/WX    TMP DP  RH WIND       PRES   REMARKS
MANISTIQUE     PTCLDY    65  59  81 NE3       30.02F HAZE
ESCANABA       FOG       63  63 100 CALM      30.02R VSB 1/4
MENOMINEE      CLEAR     66  65  96 S6        30.02S
SAWYER-GWINN   CLEAR     63  58  86 CALM      30.03S
$$
MIZ001>003-009>011-084-220400-
WESTERN UPPER MICHIGAN

CITY           SKY/WX    TMP DP  RH WIND       PRES   REMARKS
IRON MOUNTAIN  PTCLDY    68  65  90 SE5       30.01S FOG
HOUGHTON       CLEAR     58  54  86 E8        29.98F
COPPER HARBOR    N/A     59  58  96 VRB6      29.99F
IRONWOOD       PTCLDY    72  66  81 S12       29.94F
$$

ABBREVIATIONS USED IN REMARKS
   TC - TEMPERATURE IN CELSIUS
  WCI - WIND CHILL INDEX
   HX - HEAT INDEX
  VSB - VISIBILITY





USA.gov is the U.S. government's official web portal to all federal, state and local government web resources and services.